This is the latest recevied weather packets stored in our database for station/object OK1OBR-13. If no packets are shown the sender has not sent any weather packets the latest 1 day(s).
| Time | Temp. | Humidity | Pressure | Rain* | Wind** | Luminosity | Snow |
|---|---|---|---|---|---|---|---|
| 1778063281 | 17.78° C | 60% | 929.9 hPa | 0.25 mm | - | - | - |
| 1778063221 | 17.78° C | 59% | 930.1 hPa | 0.25 mm | - | - | - |
| 1778063041 | 17.22° C | 61% | 929.9 hPa | 0.25 mm | - | - | - |
| 1778062801 | 17.22° C | 60% | 930 hPa | 0.25 mm | - | - | - |
| 1778062742 | 17.22° C | 59% | 930 hPa | 0.25 mm | - | - | - |
| 1778062621 | 17.22° C | 60% | 930 hPa | 0.25 mm | - | - | - |
| 1778062021 | 17.22° C | 60% | 930.2 hPa | 0.25 mm | - | - | - |
| 1778061961 | 17.22° C | 62% | 930.1 hPa | 0.25 mm | - | - | - |
| 1778061781 | 17.78° C | 62% | 930 hPa | 0.25 mm | - | - | - |
| 1778061721 | 17.78° C | 62% | 930 hPa | 0.25 mm | - | - | - |
| 1778061602 | 17.78° C | 59% | 930.1 hPa | 0.25 mm | - | - | - |
| 1778061482 | 17.22° C | 59% | 930.1 hPa | 0.25 mm | - | - | - |
| 1778061422 | 17.22° C | 62% | 930.1 hPa | 0.25 mm | - | - | - |
| 1778061361 | 17.22° C | 60% | 929.9 hPa | 0.25 mm | - | - | - |
| 1778061241 | 16.67° C | 62% | 930.1 hPa | 0.25 mm | - | - | - |
| 1778060821 | 17.22° C | 63% | 930.1 hPa | 0.25 mm | - | - | - |
| 1778060701 | 17.22° C | 61% | 930.3 hPa | 0.25 mm | - | - | - |
| 1778060582 | 17.22° C | 61% | 930.4 hPa | 0.25 mm | - | - | - |
| 1778060401 | 17.22° C | 62% | 930.2 hPa | 0.25 mm | - | - | - |
| 1778060341 | 17.22° C | 61% | 930 hPa | 0.25 mm | - | - | - |
| 1778060281 | 17.22° C | 61% | 930.2 hPa | 0.25 mm | - | - | - |
| 1778060221 | 17.78° C | 62% | 930.3 hPa | 0.25 mm | - | - | - |
| 1778060162 | 17.78° C | 61% | 930.2 hPa | 0.25 mm | - | - | - |
| 1778060101 | 17.22° C | 65% | 930.2 hPa | 0.25 mm | - | - | - |
| 1778059682 | 17.22° C | 64% | 930 hPa | 0.25 mm | - | - | - |
* Rain since midnight (hover to see other rain measurements)
** Current wind speed in m/s (hover to see current wind gust speed)